Time,TemperatureF,DewpointF,PressureIn,WindDirection,WindDirectionDegrees,WindSpeedMPH,WindSpeedGustMPH,Humidity,HourlyPrecipIn,Conditions,Clouds,dailyrainin,SoftwareType,DateUTC
2013-03-18 00:03:00,73.0,-99.9,30.06,SE,125,6.0,12.0,-999,-99.99,,,-99.99,,2013-03-18 04:03:00,
2013-03-18 00:13:00,73.0,-99.9,30.05,ESE,122,6.0,9.0,-999,-99.99,,,-99.99,,2013-03-18 04:13:00,
2013-03-18 00:23:00,73.0,-99.9,30.05,SE,126,4.0,9.0,-999,-99.99,,,-99.99,,2013-03-18 04:23:00,
2013-03-18 00:33:00,73.0,-99.9,30.05,ESE,122,5.0,8.0,-999,-99.99,,,-99.99,,2013-03-18 04:33:00,
2013-03-18 00:43:00,73.0,-99.9,30.05,SE,131,5.0,9.0,-999,-99.99,,,-99.99,,2013-03-18 04:43:00,
2013-03-18 00:53:00,73.0,-99.9,30.05,SE,127,6.0,8.0,-999,-99.99,,,-99.99,,2013-03-18 04:53:00,
2013-03-18 01:03:00,73.0,-99.9,30.05,SE,126,5.0,7.0,-999,-99.99,,,-99.99,,2013-03-18 05:03:00,
2013-03-18 01:12:00,73.0,-99.9,30.04,SE,130,5.0,11.0,-999,-99.99,,,-99.99,,2013-03-18 05:12:00,
2013-03-18 01:23:00,73.0,-99.9,30.04,SE,129,5.0,8.0,-999,-99.99,,,-99.99,,2013-03-18 05:23:00,
2013-03-18 01:33:00,73.0,-99.9,30.04,SE,135,6.0,9.0,-999,-99.99,,,-99.99,,2013-03-18 05:33:00,
2013-03-18 01:43:00,73.0,-99.9,30.04,SE,133,6.0,11.0,-999,-99.99,,,-99.99,,2013-03-18 05:43:00,
2013-03-18 01:52:00,73.0,-99.9,30.04,SE,132,6.0,10.0,-999,-99.99,,,-99.99,,2013-03-18 05:52:00,
2013-03-18 02:02:00,73.0,-99.9,30.03,SE,136,4.0,8.0,-999,-99.99,,,-99.99,,2013-03-18 06:02:00,
2013-03-18 02:12:00,73.0,-99.9,30.03,SE,133,6.0,12.0,-999,-99.99,,,-99.99,,2013-03-18 06:12:00,
2013-03-18 02:22:00,73.0,-99.9,30.02,SE,133,6.0,11.0,-999,-99.99,,,-99.99,,2013-03-18 06:22:00,
2013-03-18 02:32:00,73.0,-99.9,30.02,SE,129,8.0,12.0,-999,-99.99,,,-99.99,,2013-03-18 06:32:00,
2013-03-18 02:42:00,73.0,-99.9,30.01,SE,135,6.0,11.0,-999,-99.99,,,-99.99,,2013-03-18 06:42:00,
2013-03-18 02:53:00,73.0,-99.9,30.01,SE,138,7.0,11.0,-999,-99.99,,,-99.99,,2013-03-18 06:53:00,
2013-03-18 03:02:00,73.0,-99.9,30.00,SE,131,6.0,10.0,-999,-99.99,,,-99.99,,2013-03-18 07:02:00,
2013-03-18 03:13:00,73.0,-99.9,30.00,SE,128,7.0,12.0,-999,-99.99,,,-99.99,,2013-03-18 07:13:00,
2013-03-18 03:23:00,73.0,-99.9,30.00,SE,131,8.0,13.0,-999,-99.99,,,-99.99,,2013-03-18 07:23:00,
2013-03-18 03:33:00,73.0,-99.9,29.99,SE,133,6.0,11.0,-999,-99.99,,,-99.99,,2013-03-18 07:33:00,
2013-03-18 03:43:00,73.0,-99.9,29.99,SE,126,6.0,14.0,-999,-99.99,,,-99.99,,2013-03-18 07:43:00,
2013-03-18 03:53:00,73.0,-99.9,29.99,SE,135,8.0,16.0,-999,-99.99,,,-99.99,,2013-03-18 07:53:00,
2013-03-18 04:02:00,73.0,-99.9,29.99,SE,133,6.0,12.0,-999,-99.99,,,-99.99,,2013-03-18 08:02:00,
2013-03-18 04:12:00,73.0,-99.9,29.99,SE,126,8.0,11.0,-999,-99.99,,,-99.99,,2013-03-18 08:12:00,
2013-03-18 04:22:00,73.0,-99.9,29.99,SE,129,7.0,17.0,-999,-99.99,,,-99.99,,2013-03-18 08:22:00,
2013-03-18 04:32:00,73.0,-99.9,29.99,SE,136,7.0,11.0,-999,-99.99,,,-99.99,,2013-03-18 08:32:00,
2013-03-18 04:43:00,73.0,-99.9,29.99,SE,133,8.0,12.0,-999,-99.99,,,-99.99,,2013-03-18 08:43:00,
2013-03-18 04:53:00,73.0,-99.9,29.99,SE,127,6.0,11.0,-999,-99.99,,,-99.99,,2013-03-18 08:53:00,
2013-03-18 05:02:00,73.0,-99.9,29.99,SE,140,7.0,12.0,-999,-99.99,,,-99.99,,2013-03-18 09:02:00,
2013-03-18 05:13:00,73.0,-99.9,29.99,SE,130,7.0,10.0,-999,-99.99,,,-99.99,,2013-03-18 09:13:00,
2013-03-18 05:22:00,73.0,-99.9,29.99,SE,135,6.0,9.0,-999,-99.99,,,-99.99,,2013-03-18 09:22:00,
2013-03-18 05:33:00,73.0,-99.9,29.99,SE,124,6.0,10.0,-999,-99.99,,,-99.99,,2013-03-18 09:33:00,
2013-03-18 05:43:00,73.0,-99.9,29.99,SE,133,6.0,9.0,-999,-99.99,,,-99.99,,2013-03-18 09:43:00,
2013-03-18 05:53:00,73.0,-99.9,29.99,SE,131,7.0,12.0,-999,-99.99,,,-99.99,,2013-03-18 09:53:00,
2013-03-18 06:04:00,73.0,-99.9,29.99,SE,124,6.0,12.0,-999,-99.99,,,-99.99,,2013-03-18 10:04:00,
2013-03-18 06:13:00,73.0,-99.9,29.99,SE,133,9.0,13.0,-999,-99.99,,,-99.99,,2013-03-18 10:13:00,
2013-03-18 06:23:00,73.0,-99.9,30.00,SE,127,6.0,11.0,-999,-99.99,,,-99.99,,2013-03-18 10:23:00,
2013-03-18 06:33:00,73.0,-99.9,30.00,ESE,122,6.0,15.0,-999,-99.99,,,-99.99,,2013-03-18 10:33:00,
2013-03-18 06:42:00,73.0,-99.9,30.00,SE,130,7.0,13.0,-999,-99.99,,,-99.99,,2013-03-18 10:42:00,
2013-03-18 06:53:00,73.0,-99.9,30.00,SE,126,6.0,13.0,-999,-99.99,,,-99.99,,2013-03-18 10:53:00,
2013-03-18 07:03:00,73.0,-99.9,30.00,SE,128,8.0,12.0,-999,-99.99,,,-99.99,,2013-03-18 11:03:00,
2013-03-18 07:13:00,73.0,-99.9,30.01,SE,132,6.0,11.0,-999,-99.99,,,-99.99,,2013-03-18 11:13:00,
2013-03-18 07:22:00,73.0,-99.9,30.01,SE,128,9.0,12.0,-999,-99.99,,,-99.99,,2013-03-18 11:22:00,
2013-03-18 07:32:00,73.0,-99.9,30.01,SE,132,8.0,12.0,-999,-99.99,,,-99.99,,2013-03-18 11:32:00,
2013-03-18 07:43:00,73.0,-99.9,30.01,SE,130,7.0,12.0,-999,-99.99,,,-99.99,,2013-03-18 11:43:00,
2013-03-18 07:53:00,73.0,-99.9,30.01,SE,132,7.0,12.0,-999,-99.99,,,-99.99,,2013-03-18 11:53:00,
2013-03-18 08:13:00,73.0,-99.9,30.01,SE,134,6.0,12.0,-999,-99.99,,,-99.99,,2013-03-18 12:13:00,
2013-03-18 08:22:00,73.0,-99.9,30.01,SE,135,7.0,12.0,-999,-99.99,,,-99.99,,2013-03-18 12:22:00,
2013-03-18 08:33:00,74.0,-99.9,30.02,SE,136,6.0,10.0,-999,-99.99,,,-99.99,,2013-03-18 12:33:00,
2013-03-18 08:43:00,74.0,-99.9,30.02,SE,132,7.0,16.0,-999,-99.99,,,-99.99,,2013-03-18 12:43:00,
2013-03-18 08:52:00,75.0,-99.9,30.03,SE,129,7.0,13.0,-999,-99.99,,,-99.99,,2013-03-18 12:52:00,
2013-03-18 09:03:00,76.0,-99.9,30.03,SE,131,7.0,11.0,-999,-99.99,,,-99.99,,2013-03-18 13:03:00,
2013-03-18 09:12:00,76.0,-99.9,30.04,SE,136,8.0,12.0,-999,-99.99,,,-99.99,,2013-03-18 13:12:00,
2013-03-18 09:23:00,76.0,-99.9,30.04,SE,136,6.0,14.0,-999,-99.99,,,-99.99,,2013-03-18 13:23:00,
2013-03-18 09:33:00,75.0,-99.9,30.04,SE,134,6.0,11.0,-999,-99.99,,,-99.99,,2013-03-18 13:33:00,
2013-03-18 09:43:00,76.0,-99.9,30.04,SE,140,8.0,13.0,-999,-99.99,,,-99.99,,2013-03-18 13:43:00,
2013-03-18 09:52:00,76.0,-99.9,30.05,SE,134,7.0,12.0,-999,-99.99,,,-99.99,,2013-03-18 13:52:00,
2013-03-18 10:03:00,76.0,-99.9,30.05,SSE,150,5.0,9.0,-999,-99.99,,,-99.99,,2013-03-18 14:03:00,
2013-03-18 10:12:00,76.0,-99.9,30.05,SSE,154,6.0,13.0,-999,-99.99,,,-99.99,,2013-03-18 14:12:00,
2013-03-18 10:22:00,77.0,-99.9,30.05,SSE,155,8.0,12.0,-999,-99.99,,,-99.99,,2013-03-18 14:22:00,
2013-03-18 10:32:00,77.0,-99.9,30.05,SSE,148,7.0,11.0,-999,-99.99,,,-99.99,,2013-03-18 14:32:00,
2013-03-18 10:42:00,78.0,-99.9,30.04,SE,143,7.0,14.0,-999,-99.99,,,-99.99,,2013-03-18 14:42:00,
2013-03-18 10:52:00,78.0,-99.9,30.04,SSE,148,9.0,16.0,-999,-99.99,,,-99.99,,2013-03-18 14:52:00,
2013-03-18 11:02:00,78.0,-99.9,30.04,SSE,151,7.0,13.0,-999,-99.99,,,-99.99,,2013-03-18 15:02:00,
2013-03-18 11:12:00,78.0,-99.9,30.05,SE,141,10.0,15.0,-999,-99.99,,,-99.99,,2013-03-18 15:12:00,
2013-03-18 11:23:00,78.0,-99.9,30.04,SE,145,13.0,19.0,-999,-99.99,,,-99.99,,2013-03-18 15:23:00,
2013-03-18 11:33:00,78.0,-99.9,30.04,SE,146,9.0,19.0,-999,-99.99,,,-99.99,,2013-03-18 15:33:00,
2013-03-18 11:43:00,78.0,-99.9,30.03,SE,140,9.0,16.0,-999,-99.99,,,-99.99,,2013-03-18 15:43:00,
2013-03-18 11:52:00,78.0,-99.9,30.03,SSE,150,9.0,17.0,-999,-99.99,,,-99.99,,2013-03-18 15:52:00,
2013-03-18 12:03:00,78.0,-99.9,30.03,SSE,151,10.0,21.0,-999,-99.99,,,-99.99,,2013-03-18 16:03:00,
2013-03-18 12:12:00,78.0,-99.9,30.03,SSE,152,13.0,20.0,-999,-99.99,,,-99.99,,2013-03-18 16:12:00,
2013-03-18 12:23:00,79.0,-99.9,30.02,SSE,151,8.0,14.0,-999,-99.99,,,-99.99,,2013-03-18 16:23:00,
2013-03-18 12:33:00,78.0,-99.9,30.02,SSE,154,12.0,20.0,-999,-99.99,,,-99.99,,2013-03-18 16:33:00,
2013-03-18 12:42:00,79.0,-99.9,30.01,SSE,155,10.0,18.0,-999,-99.99,,,-99.99,,2013-03-18 16:42:00,
2013-03-18 12:53:00,79.0,-99.9,30.01,SSE,152,9.0,18.0,-999,-99.99,,,-99.99,,2013-03-18 16:53:00,
2013-03-18 13:03:00,80.0,-99.9,30.01,SSE,153,6.0,17.0,-999,-99.99,,,-99.99,,2013-03-18 17:03:00,
2013-03-18 13:12:00,79.0,-99.9,30.01,SSE,152,9.0,16.0,-999,-99.99,,,-99.99,,2013-03-18 17:12:00,
2013-03-18 13:22:00,79.0,-99.9,30.01,SE,144,9.0,17.0,-999,-99.99,,,-99.99,,2013-03-18 17:22:00,
2013-03-18 13:33:00,79.0,-99.9,30.02,SSE,166,9.0,15.0,-999,-99.99,,,-99.99,,2013-03-18 17:33:00,
2013-03-18 13:43:00,79.0,-99.9,30.01,SSE,161,9.0,17.0,-999,-99.99,,,-99.99,,2013-03-18 17:43:00,
2013-03-18 13:52:00,79.0,-99.9,30.00,SSE,162,7.0,16.0,-999,-99.99,,,-99.99,,2013-03-18 17:52:00,
2013-03-18 14:02:00,78.0,-99.9,30.00,SSE,158,11.0,18.0,-999,-99.99,,,-99.99,,2013-03-18 18:02:00,
2013-03-18 14:13:00,78.0,-99.9,29.99,SSE,154,8.0,14.0,-999,-99.99,,,-99.99,,2013-03-18 18:13:00,
2013-03-18 14:22:00,79.0,-99.9,29.99,SSE,150,8.0,17.0,-999,-99.99,,,-99.99,,2013-03-18 18:22:00,
2013-03-18 14:32:00,79.0,-99.9,29.98,SSE,158,10.0,17.0,-999,-99.99,,,-99.99,,2013-03-18 18:32:00,
2013-03-18 14:42:00,79.0,-99.9,29.97,SSE,155,8.0,15.0,-999,-99.99,,,-99.99,,2013-03-18 18:42:00,
2013-03-18 14:52:00,79.0,-99.9,29.97,SSE,152,12.0,20.0,-999,-99.99,,,-99.99,,2013-03-18 18:52:00,
2013-03-18 15:03:00,79.0,-99.9,29.97,SSE,156,9.0,15.0,-999,-99.99,,,-99.99,,2013-03-18 19:03:00,
2013-03-18 15:12:00,79.0,-99.9,29.96,SSE,158,9.0,17.0,-999,-99.99,,,-99.99,,2013-03-18 19:12:00,
2013-03-18 15:22:00,79.0,-99.9,29.96,SSE,158,10.0,16.0,-999,-99.99,,,-99.99,,2013-03-18 19:22:00,
2013-03-18 15:33:00,78.0,-99.9,29.95,SSE,162,15.0,21.0,-999,-99.99,,,-99.99,,2013-03-18 19:33:00,
2013-03-18 15:42:00,79.0,-99.9,29.96,SSE,165,10.0,16.0,-999,-99.99,,,-99.99,,2013-03-18 19:42:00,
2013-03-18 15:52:00,79.0,-99.9,29.96,South,170,10.0,18.0,-999,-99.99,,,-99.99,,2013-03-18 19:52:00,
2013-03-18 16:03:00,78.0,-99.9,29.96,SSE,168,9.0,16.0,-999,-99.99,,,-99.99,,2013-03-18 20:03:00,
2013-03-18 16:12:00,78.0,-99.9,29.97,SSE,168,9.0,15.0,-999,-99.99,,,-99.99,,2013-03-18 20:12:00,
2013-03-18 16:23:00,78.0,-99.9,29.97,South,178,6.0,12.0,-999,-99.99,,,-99.99,,2013-03-18 20:23:00,
2013-03-18 16:33:00,78.0,-99.9,29.97,South,171,6.0,11.0,-999,-99.99,,,-99.99,,2013-03-18 20:33:00,
2013-03-18 16:43:00,77.0,-99.9,29.97,SSE,158,5.0,10.0,-999,-99.99,,,-99.99,,2013-03-18 20:43:00,
2013-03-18 16:53:00,77.0,-99.9,29.96,SSE,168,6.0,11.0,-999,-99.99,,,-99.99,,2013-03-18 20:53:00,
2013-03-18 17:02:00,77.0,-99.9,29.96,SSE,155,5.0,11.0,-999,-99.99,,,-99.99,,2013-03-18 21:02:00,
2013-03-18 17:12:00,78.0,-99.9,29.96,SSE,157,5.0,9.0,-999,-99.99,,,-99.99,,2013-03-18 21:12:00,
2013-03-18 17:23:00,77.0,-99.9,29.96,SE,141,5.0,9.0,-999,-99.99,,,-99.99,,2013-03-18 21:23:00,
2013-03-18 17:33:00,77.0,-99.9,29.96,SSE,157,5.0,10.0,-999,-99.99,,,-99.99,,2013-03-18 21:33:00,
2013-03-18 17:43:00,76.0,-99.9,29.95,SE,144,6.0,11.0,-999,-99.99,,,-99.99,,2013-03-18 21:43:00,
2013-03-18 17:53:00,76.0,-99.9,29.95,SE,140,8.0,11.0,-999,-99.99,,,-99.99,,2013-03-18 21:53:00,
2013-03-18 18:03:00,77.0,-99.9,29.96,SE,138,6.0,8.0,-999,-99.99,,,-99.99,,2013-03-18 22:03:00,
2013-03-18 18:13:00,77.0,-99.9,29.97,SSE,158,5.0,8.0,-999,-99.99,,,-99.99,,2013-03-18 22:13:00,
2013-03-18 18:23:00,77.0,-99.9,29.96,SE,137,5.0,9.0,-999,-99.99,,,-99.99,,2013-03-18 22:23:00,
2013-03-18 18:33:00,77.0,-99.9,29.96,SSE,157,5.0,9.0,-999,-99.99,,,-99.99,,2013-03-18 22:33:00,
2013-03-18 18:43:00,77.0,-99.9,29.97,SSE,154,3.0,5.0,-999,-99.99,,,-99.99,,2013-03-18 22:43:00,
2013-03-18 18:53:00,77.0,-99.9,29.97,SE,145,2.0,7.0,-999,-99.99,,,-99.99,,2013-03-18 22:53:00,
2013-03-18 19:03:00,77.0,-99.9,29.96,ESE,113,2.0,5.0,-999,-99.99,,,-99.99,,2013-03-18 23:03:00,
2013-03-18 19:13:00,76.0,-99.9,29.97,East,90,3.0,5.0,-999,-99.99,,,-99.99,,2013-03-18 23:13:00,
2013-03-18 19:23:00,75.0,-99.9,29.97,NNW,335,5.0,9.0,-999,-99.99,,,-99.99,,2013-03-18 23:23:00,
2013-03-18 19:33:00,75.0,-99.9,29.97,North,10,3.0,7.0,-999,-99.99,,,-99.99,,2013-03-18 23:33:00,
2013-03-18 19:43:00,74.0,-99.9,29.97,NNE,21,4.0,5.0,-999,-99.99,,,-99.99,,2013-03-18 23:43:00,
2013-03-18 19:53:00,73.0,-99.9,29.96,NNE,24,4.0,6.0,-999,-99.99,,,-99.99,,2013-03-18 23:53:00,
2013-03-18 20:03:00,73.0,-99.9,29.96,NNE,30,5.0,6.0,-999,-99.99,,,-99.99,,2013-03-19 00:03:00,
2013-03-18 20:12:00,73.0,-99.9,29.96,NNE,30,6.0,7.0,-999,-99.99,,,-99.99,,2013-03-19 00:12:00,
2013-03-18 20:23:00,73.0,-99.9,29.96,NNE,30,6.0,7.0,-999,-99.99,,,-99.99,,2013-03-19 00:23:00,
2013-03-18 20:33:00,73.0,-99.9,29.96,NE,37,6.0,7.0,-999,-99.99,,,-99.99,,2013-03-19 00:33:00,
2013-03-18 20:43:00,73.0,-99.9,29.96,NNE,28,5.0,6.0,-999,-99.99,,,-99.99,,2013-03-19 00:43:00,
2013-03-18 20:52:00,73.0,-99.9,29.96,NNE,26,4.0,6.0,-999,-99.99,,,-99.99,,2013-03-19 00:52:00,
2013-03-18 21:02:00,73.0,-99.9,29.97,NNE,26,4.0,4.0,-999,-99.99,,,-99.99,,2013-03-19 01:02:00,
2013-03-18 21:12:00,73.0,-99.9,29.97,NE,44,4.0,5.0,-999,-99.99,,,-99.99,,2013-03-19 01:12:00,
2013-03-18 21:23:00,73.0,-99.9,29.97,NE,47,4.0,5.0,-999,-99.99,,,-99.99,,2013-03-19 01:23:00,
2013-03-18 21:33:00,73.0,-99.9,29.97,NE,55,4.0,5.0,-999,-99.99,,,-99.99,,2013-03-19 01:33:00,
2013-03-18 21:43:00,73.0,-99.9,29.97,ENE,62,3.0,4.0,-999,-99.99,,,-99.99,,2013-03-19 01:43:00,
2013-03-18 21:53:00,73.0,-99.9,29.97,ENE,58,4.0,5.0,-999,-99.99,,,-99.99,,2013-03-19 01:53:00,
2013-03-18 22:03:00,73.0,-99.9,29.97,ENE,58,4.0,5.0,-999,-99.99,,,-99.99,,2013-03-19 02:03:00,
2013-03-18 22:13:00,73.0,-99.9,29.97,NE,55,5.0,7.0,-999,-99.99,,,-99.99,,2013-03-19 02:13:00,
2013-03-18 22:23:00,73.0,-99.9,29.98,NE,54,4.0,5.0,-999,-99.99,,,-99.99,,2013-03-19 02:23:00,
2013-03-18 22:33:00,73.0,-99.9,29.98,NE,55,4.0,5.0,-999,-99.99,,,-99.99,,2013-03-19 02:33:00,
2013-03-18 22:43:00,73.0,-99.9,29.98,ENE,69,3.0,4.0,-999,-99.99,,,-99.99,,2013-03-19 02:43:00,
2013-03-18 22:53:00,73.0,-99.9,29.98,NE,43,3.0,3.0,-999,-99.99,,,-99.99,,2013-03-19 02:53:00,
2013-03-18 23:02:00,73.0,-99.9,29.98,ENE,58,2.0,3.0,-999,-99.99,,,-99.99,,2013-03-19 03:02:00,
2013-03-18 23:13:00,73.0,-99.9,29.98,ENE,68,3.0,4.0,-999,-99.99,,,-99.99,,2013-03-19 03:13:00,
2013-03-18 23:23:00,73.0,-99.9,29.98,ENE,77,3.0,4.0,-999,-99.99,,,-99.99,,2013-03-19 03:23:00,
2013-03-18 23:33:00,73.0,-99.9,29.98,East,100,1.0,2.0,-999,-99.99,,,-99.99,,2013-03-19 03:33:00,
2013-03-18 23:43:00,73.0,-99.9,29.99,NNE,27,0.0,1.0,-999,-99.99,,,-99.99,,2013-03-19 03:43:00,
2013-03-18 23:54:00,73.0,-99.9,29.98,NE,48,2.0,4.0,-999,-99.99,,,-99.99,,2013-03-19 03:54:00,